Location: Freiburg+im+Breisgau
(48.0359°N, 7.8195°E)
Time: 20:46:12
(UTC+01:00)

OTV 5 (USA 277) - Visible Passes

Search period start: 20 February 2018 00:00
Search period end: 02 March 2018 00:00
Orbit: 404 x 417 km, 43.0° (Epoch: 07 September)

Date Brightness Start Highest point End Pass type
(mag) Time Alt. Az. Time Alt. Az. Time Alt. Az.
20 Feb ? 06:48:20 10° SSW 06:50:19 15° SSE 06:52:18 10° ESE visible
21 Feb ? 05:58:22 10° S 05:59:27 11° SSE 06:00:32 10° SE visible
22 Feb ? 06:42:27 10° SW 06:45:09 23° SSE 06:47:52 10° ESE visible
23 Feb ? 05:52:17 12° SSW 05:54:15 19° SSE 05:56:41 10° ESE visible
24 Feb ? 05:03:42 15° SSE 05:03:42 15° SSE 05:05:20 10° ESE visible
24 Feb ? 06:37:08 10° WSW 06:40:06 31° S 06:43:04 10° ESE visible
25 Feb ? 05:47:48 21° SSW 05:49:08 28° SSE 05:52:01 10° ESE visible
26 Feb ? 04:59:06 21° SE 04:59:06 21° SE 05:00:55 10° ESE visible
26 Feb ? 06:32:03 10° WSW 06:35:04 34° S 06:38:06 10° ESE visible
27 Feb ? 05:43:07 27° SSW 05:44:06 33° S 05:47:07 10° ESE visible
28 Feb ? 04:54:23 23° SE 04:54:23 23° SE 04:56:06 10° ESE visible
28 Feb ? 06:27:08 10° WSW 06:30:03 29° S 06:32:57 10° SE visible
01 Mar ? 05:38:23 29° SSW 05:39:05 32° S 05:42:04 10° ESE visible
